Showing default

OTB, 44341

Orbit data source: Space-Track

OTB, 44341 is a payload satellite owned by GA-EMS (US) in LEO that was launched on Tue, 25 Jun 2019 UTC via an FALCON HEAVY launch vehicle from the Air Force Eastern Test Range (AFETR). Payload-class satellites include a variety of spacecraft equipped with specific instruments for various scientific and technological missions. These include communications satellites like Starlink; space stations such as the ISS; scientific satellites like the Hubble; Earth observation satellites from companies like Planet Labs, Umbra, and HawkEye 360; GPS; miniature CubeSats for education and research; and military/defense satellites.

Not visible in the next 10 days
Identifier
44341, 2019-036C
Orbit
LEO
Last TLE update
11 hours ago
Origin
Manufacturer
GA-EMS
Mission
Operational Commercial Tech/Misc
Bus & Motor
SSTL-150, Unknown motor
Mass
100 kg wet, 100 kg dry
Launch date (UTC)
2019-06-25 (6 years ago)
Launch vehicle
FALCON HEAVY
Launch site
Air Force Eastern Test Range (AFETR)
Object type
Payload
Rocket body
Debris
Shape & HBR
Box + 4 Pan, 3 m
Radar Cross Section
1.570 m², Large (>1 m²)

Expand to show TLE details & history

TLE from 11 hours ago
0 OTB
1 44341U 19036C   25128.92471269  .00001765  00000-0  34480-3 0  9994
2 44341  23.9982  19.0145 0011046 241.7360 118.2017 14.56064751312360
Epoch: 2025-05-08T22:11Z
Definitive object data (Epoch: 2025-05-08T22:11:35.176Z)
Latitude
-0°
Longitude
179.1297°
Altitude
707.54 km
Speed
7.503 km/s
True Right ascension
01h 16m 03s
True Declination
0° 00' 00"
Sunlit
Object was in daylight at TLE epoch
Visualization TLE readout
Latitude
-2.93344°
Longitude
2.87959°
Altitude
700.284 km
Speed
7.51 km/s
Apparent Right ascension
10h 37m 08s
Apparent Declination
-37° 48' 55"
Sunlit
Object is in full shadow
Visualization observer readout
Local Sidereal Time
17:04:19
Azimuth
242.389° WSW
Elevation
-27.717°
Doppler factor
1
Orbital elements
Apogee altitude
718.42 km
Perigee altitude
702.76 km
Semi-major axis
7,088.727 km
Eccentricity
0.0011046
Inclination
23.9982°
RAAN
19.0145°
Arg. of periapsis
241.736°
True anomaly
118.31318°
Mean anomaly
118.2017°
Eccentric anomaly
118.25745°
Mean motion
3.63656 °/min
BSTAR
0.0003448
Orbital period
98.99 mins
Loading maneuver chart data...
Loading SW <> Apogee altitude chart data...
Loading historical data...
Loading historical data...
Loading historical data...
Loading historical data...
Loading historical data...
Loading historical data...
Loading historical data...

OTB Visibility forecast

Observer location: undefined°, undefined°

OTB is not visible in the next 10 days
Span
Click to sort rows by Start time (UTC) header in descending order
Start Az.
Max El. time (UTC)
Max El. Az.
Max El.
End time (UTC)
End Az.
|